N967DV KSAN-L35

Flight info

Callsign N967DV
Flight time N/A
Altitude 6000
Route VFR N +FF
Aircraft DV20/L-VGDW/C

Departure

Time 2026-04-25 19:20
Airport San Diego International Airport (KSAN)

Arrival

Time N/A
Airport L35
Time Latitude Longitude Altitude Speed Heading
2026-04-25 19:20 32.73597 -117.19224 744 ft 76 kts 290°
2026-04-25 19:20 32.73863 -117.19710 1102 ft 71 kts 303°
2026-04-25 19:21 32.74191 -117.20142 1418 ft 72 kts 304°
2026-04-25 19:21 32.74885 -117.20973 2046 ft 71 kts 303°
2026-04-25 19:21 32.75217 -117.21413 2325 ft 74 kts 302°
2026-04-25 19:22 32.75594 -117.21835 2632 ft 74 kts 311°
2026-04-25 19:22 32.75880 -117.22303 2945 ft 70 kts 300°
2026-04-25 19:22 32.76620 -117.23083 3501 ft 75 kts 325°
2026-04-25 19:23 32.77094 -117.23327 3780 ft 78 kts 347°
2026-04-25 19:23 32.77942 -117.22584 4334 ft 85 kts 65°
2026-04-25 19:23 32.78154 -117.21946 4610 ft 84 kts 65°
2026-04-25 19:24 32.78361 -117.21304 4878 ft 84 kts 66°
2026-04-25 19:24 32.78605 -117.20570 4906 ft 112 kts 66°
2026-04-25 19:24 32.79237 -117.18769 4857 ft 116 kts 66°
2026-04-25 19:25 32.79844 -117.17045 4854 ft 108 kts 66°
2026-04-25 19:25 32.80142 -117.16193 4854 ft 106 kts 66°
2026-04-25 19:25 32.80425 -117.15388 4854 ft 105 kts 66°
2026-04-25 19:26 32.80738 -117.14611 4856 ft 104 kts 58°
2026-04-25 19:26 32.81193 -117.13937 4854 ft 103 kts 46°
2026-04-25 19:26 32.81695 -117.13329 4855 ft 103 kts 40°
2026-04-25 19:26 32.82216 -117.12753 4853 ft 102 kts 33°
2026-04-25 19:27 32.82854 -117.12386 4852 ft 100 kts 17°
2026-04-25 19:27 32.83064 -117.12284 4852 ft 100 kts 17°
2026-04-25 19:27 32.84149 -117.11761 4853 ft 100 kts 17°
2026-04-25 19:27 32.84796 -117.11453 4852 ft 100 kts 16°
2026-04-25 19:28 32.85447 -117.11168 4850 ft 98 kts
2026-04-25 19:28 32.86114 -117.11149 4854 ft 96 kts 353°
2026-04-25 19:28 32.86763 -117.11171 4854 ft 96 kts 353°
2026-04-25 19:28 32.87419 -117.11193 4854 ft 96 kts 353°
2026-04-25 19:29 32.88081 -117.11217 4856 ft 98 kts 353°
2026-04-25 19:29 32.88754 -117.11241 4857 ft 100 kts 353°
2026-04-25 19:29 32.89458 -117.11266 4855 ft 102 kts 353°
2026-04-25 19:29 32.90158 -117.11288 4853 ft 103 kts 352°
2026-04-25 19:30 32.90866 -117.11310 4852 ft 103 kts 353°
2026-04-25 19:30 32.91590 -117.11281 4849 ft 105 kts
2026-04-25 19:30 32.92300 -117.11037 4848 ft 107 kts 19°
2026-04-25 19:30 32.92957 -117.10640 4849 ft 108 kts 24°
2026-04-25 19:31 32.93615 -117.10218 4851 ft 107 kts 24°
2026-04-25 19:31 32.94282 -117.09828 4851 ft 107 kts 19°
2026-04-25 19:31 32.94960 -117.09535 4851 ft 105 kts 14°
2026-04-25 19:31 32.95641 -117.09290 4852 ft 105 kts 10°
2026-04-25 19:32 32.96340 -117.09070 4852 ft 105 kts 10°
2026-04-25 19:32 32.97046 -117.08852 4853 ft 105 kts 10°
2026-04-25 19:32 32.97749 -117.08640 4853 ft 105 kts
2026-04-25 19:32 32.97993 -117.08566 4853 ft 105 kts 10°
2026-04-25 19:33 32.99168 -117.08212 4853 ft 106 kts
2026-04-25 19:33 32.99868 -117.08003 4853 ft 106 kts 10°
2026-04-25 19:33 33.00588 -117.07787 4852 ft 106 kts 10°
2026-04-25 19:33 33.01305 -117.07571 4853 ft 106 kts 10°
2026-04-25 19:34 33.02002 -117.07363 4851 ft 106 kts
2026-04-25 19:34 33.02700 -117.07147 4853 ft 106 kts 10°
2026-04-25 19:34 33.03412 -117.06928 4849 ft 106 kts 10°
2026-04-25 19:34 33.04118 -117.06731 4851 ft 108 kts
2026-04-25 19:35 33.04855 -117.06538 4853 ft 113 kts
2026-04-25 19:35 33.05621 -117.06332 4854 ft 117 kts
2026-04-25 19:35 33.06426 -117.06120 4853 ft 119 kts
2026-04-25 19:35 33.07212 -117.05914 4850 ft 120 kts
2026-04-25 19:36 33.08005 -117.05711 4849 ft 120 kts
2026-04-25 19:36 33.08801 -117.05514 4848 ft 121 kts
2026-04-25 19:36 33.09621 -117.05305 4849 ft 121 kts
2026-04-25 19:36 33.10451 -117.05096 4848 ft 122 kts
2026-04-25 19:37 33.11253 -117.04901 4848 ft 121 kts
2026-04-25 19:37 33.12086 -117.04696 4846 ft 122 kts
2026-04-25 19:37 33.12899 -117.04495 4847 ft 121 kts
2026-04-25 19:37 33.13699 -117.04298 4846 ft 121 kts
2026-04-25 19:38 33.14510 -117.04097 4845 ft 121 kts
2026-04-25 19:38 33.15317 -117.03893 4844 ft 121 kts
2026-04-25 19:38 33.16133 -117.03692 4842 ft 121 kts
2026-04-25 19:38 33.16951 -117.03481 4843 ft 121 kts
2026-04-25 19:39 33.17763 -117.03272 4843 ft 121 kts
2026-04-25 19:39 33.18567 -117.03063 4844 ft 121 kts
2026-04-25 19:39 33.19376 -117.02856 4843 ft 121 kts
2026-04-25 19:39 33.20183 -117.02650 4841 ft 121 kts
2026-04-25 19:40 33.21008 -117.02441 4840 ft 121 kts
2026-04-25 19:40 33.21802 -117.02241 4839 ft 121 kts
2026-04-25 19:40 33.22612 -117.02034 4837 ft 122 kts
2026-04-25 19:40 33.23378 -117.01843 4828 ft 122 kts
2026-04-25 19:41 33.24241 -117.01626 4827 ft 121 kts
2026-04-25 19:41 33.25069 -117.01422 4824 ft 121 kts
2026-04-25 19:41 33.25893 -117.01221 4827 ft 121 kts
2026-04-25 19:41 33.26164 -117.01157 4826 ft 121 kts
2026-04-25 19:42 33.27525 -117.00801 4864 ft 118 kts
2026-04-25 19:42 33.28287 -117.00586 4984 ft 111 kts
2026-04-25 19:42 33.29034 -117.00365 5090 ft 108 kts
2026-04-25 19:42 33.29759 -117.00141 5182 ft 107 kts 10°
2026-04-25 19:43 33.30464 -116.99918 5277 ft 107 kts 10°
2026-04-25 19:43 33.31169 -116.99687 5366 ft 107 kts 11°
2026-04-25 19:43 33.31865 -116.99455 5453 ft 107 kts 11°
2026-04-25 19:43 33.32566 -116.99215 5543 ft 107 kts 11°
2026-04-25 19:44 33.33266 -116.98970 5630 ft 107 kts 11°
2026-04-25 19:44 33.33980 -116.98713 5726 ft 108 kts 12°
2026-04-25 19:44 33.34695 -116.98450 5815 ft 108 kts 12°
2026-04-25 19:44 33.35378 -116.98193 5901 ft 108 kts 12°
2026-04-25 19:45 33.36100 -116.97916 5927 ft 113 kts 13°
2026-04-25 19:45 33.36834 -116.97632 5938 ft 117 kts 14°
2026-04-25 19:45 33.37595 -116.97330 5945 ft 120 kts 14°
2026-04-25 19:45 33.38394 -116.97007 5939 ft 121 kts 15°
2026-04-25 19:46 33.39201 -116.96672 5938 ft 122 kts 15°
2026-04-25 19:46 33.39994 -116.96330 5954 ft 119 kts 16°
2026-04-25 19:46 33.40776 -116.96072 6004 ft 115 kts
2026-04-25 19:46 33.41550 -116.95859 6053 ft 113 kts
2026-04-25 19:47 33.42299 -116.95649 6167 ft 107 kts
2026-04-25 19:47 33.43002 -116.95451 6277 ft 105 kts
2026-04-25 19:47 33.43712 -116.95248 6383 ft 104 kts
2026-04-25 19:47 33.44408 -116.95042 6478 ft 104 kts
2026-04-25 19:48 33.45113 -116.94833 6580 ft 104 kts
2026-04-25 19:48 33.45818 -116.94619 6686 ft 104 kts
2026-04-25 19:48 33.46522 -116.94403 6789 ft 104 kts
2026-04-25 19:48 33.47227 -116.94186 6884 ft 105 kts
2026-04-25 19:49 33.47939 -116.93962 6982 ft 105 kts
2026-04-25 19:49 33.48170 -116.93887 7014 ft 105 kts
2026-04-25 19:49 33.49355 -116.93512 7170 ft 106 kts
2026-04-25 19:49 33.50065 -116.93289 7270 ft 106 kts
2026-04-25 19:50 33.51492 -116.92830 7465 ft 106 kts
2026-04-25 19:50 33.52203 -116.92593 7553 ft 106 kts
2026-04-25 19:50 33.52927 -116.92352 7615 ft 109 kts
2026-04-25 19:51 33.53678 -116.92100 7625 ft 115 kts
2026-04-25 19:51 33.54479 -116.91837 7630 ft 119 kts
2026-04-25 19:51 33.55286 -116.91575 7635 ft 122 kts
2026-04-25 19:51 33.56101 -116.91310 7644 ft 124 kts
2026-04-25 19:52 33.56937 -116.91042 7658 ft 124 kts
2026-04-25 19:52 33.57777 -116.90771 7680 ft 125 kts
2026-04-25 19:52 33.58625 -116.90497 7691 ft 125 kts
2026-04-25 19:52 33.59464 -116.90232 7702 ft 125 kts
2026-04-25 19:53 33.60302 -116.89971 7715 ft 124 kts
2026-04-25 19:53 33.61132 -116.89713 7733 ft 124 kts
2026-04-25 19:53 33.61941 -116.89466 7746 ft 124 kts
2026-04-25 19:53 33.62769 -116.89268 7760 ft 124 kts
2026-04-25 19:54 33.63600 -116.89075 7764 ft 125 kts
2026-04-25 19:54 33.64467 -116.88876 7739 ft 127 kts
2026-04-25 19:54 33.65344 -116.88681 7678 ft 131 kts
2026-04-25 19:54 33.65648 -116.88617 7661 ft 131 kts
2026-04-25 19:55 33.67134 -116.88300 7628 ft 129 kts
2026-04-25 19:55 33.68013 -116.88104 7632 ft 128 kts
2026-04-25 19:55 33.68897 -116.87902 7637 ft 127 kts
2026-04-25 19:55 33.69751 -116.87709 7636 ft 126 kts
2026-04-25 19:56 33.70591 -116.87515 7637 ft 126 kts
2026-04-25 19:56 33.71458 -116.87322 7671 ft 124 kts
2026-04-25 19:56 33.72304 -116.87138 7681 ft 124 kts
2026-04-25 19:56 33.73161 -116.86946 7683 ft 125 kts
2026-04-25 19:57 33.74012 -116.86764 7680 ft 124 kts
2026-04-25 19:57 33.74869 -116.86579 7684 ft 124 kts
2026-04-25 19:57 33.75723 -116.86398 7681 ft 124 kts
2026-04-25 19:57 33.76542 -116.86221 7684 ft 125 kts
2026-04-25 19:58 33.77373 -116.86047 7686 ft 124 kts
2026-04-25 19:58 33.78191 -116.85871 7689 ft 125 kts
2026-04-25 19:58 33.79010 -116.85696 7690 ft 125 kts
2026-04-25 19:58 33.79883 -116.85515 7686 ft 125 kts
2026-04-25 19:59 33.80738 -116.85330 7684 ft 125 kts
2026-04-25 19:59 33.81596 -116.85148 7681 ft 125 kts
2026-04-25 19:59 33.82447 -116.84964 7679 ft 125 kts
2026-04-25 19:59 33.83297 -116.84820 7679 ft 124 kts 360°
2026-04-25 20:00 33.84149 -116.84715 7680 ft 124 kts 359°
2026-04-25 20:00 33.84430 -116.84679 7680 ft 124 kts 359°
2026-04-25 20:00 33.85861 -116.84512 7679 ft 123 kts 359°
2026-04-25 20:00 33.86710 -116.84413 7675 ft 124 kts 359°
2026-04-25 20:01 33.88423 -116.84235 7680 ft 123 kts 359°
2026-04-25 20:01 33.89235 -116.84338 7686 ft 118 kts 338°
2026-04-25 20:01 33.89963 -116.84711 7685 ft 116 kts 325°
2026-04-25 20:02 33.90670 -116.85178 7683 ft 116 kts 324°
2026-04-25 20:02 33.91368 -116.85643 7676 ft 117 kts 325°
2026-04-25 20:02 33.92076 -116.86107 7676 ft 116 kts 325°
2026-04-25 20:02 33.92791 -116.86575 7679 ft 116 kts 324°
2026-04-25 20:03 33.93477 -116.87071 7675 ft 114 kts 317°
2026-04-25 20:03 33.94062 -116.87696 7673 ft 114 kts 311°
2026-04-25 20:03 33.94633 -116.88345 7670 ft 114 kts 311°
2026-04-25 20:03 33.95215 -116.88998 7657 ft 114 kts 311°
2026-04-25 20:04 33.95801 -116.89635 7666 ft 113 kts 311°
2026-04-25 20:04 33.96390 -116.90267 7665 ft 113 kts 312°
2026-04-25 20:04 33.96980 -116.90903 7667 ft 113 kts 313°
2026-04-25 20:04 33.97575 -116.91526 7666 ft 113 kts 313°
2026-04-25 20:05 33.98173 -116.92147 7670 ft 113 kts 313°
2026-04-25 20:05 33.98771 -116.92776 7672 ft 115 kts 313°
2026-04-25 20:05 33.99376 -116.93420 7670 ft 116 kts 313°
2026-04-25 20:05 33.99999 -116.94044 7677 ft 117 kts 316°
2026-04-25 20:06 34.00672 -116.94604 7684 ft 118 kts 320°
2026-04-25 20:06 34.01364 -116.95174 7679 ft 119 kts 320°
2026-04-25 20:06 34.02045 -116.95727 7683 ft 119 kts 320°
2026-04-25 20:06 34.02734 -116.96291 7685 ft 119 kts 320°
2026-04-25 20:07 34.03424 -116.96852 7679 ft 119 kts 320°
2026-04-25 20:07 34.04116 -116.97406 7678 ft 119 kts 320°
2026-04-25 20:07 34.04845 -116.97894 7678 ft 121 kts 328°
2026-04-25 20:07 34.05605 -116.98357 7679 ft 121 kts 327°
2026-04-25 20:08 34.06359 -116.98804 7679 ft 121 kts 329°
2026-04-25 20:08 34.07146 -116.99174 7676 ft 121 kts 333°
2026-04-25 20:08 34.07957 -116.99488 7694 ft 121 kts 337°
2026-04-25 20:08 34.08782 -116.99757 7699 ft 123 kts 338°
2026-04-25 20:09 34.09616 -117.00039 7683 ft 124 kts 338°
2026-04-25 20:09 34.10442 -117.00315 7680 ft 124 kts 338°
2026-04-25 20:09 34.11319 -117.00455 7685 ft 127 kts 353°
2026-04-25 20:09 34.12199 -117.00511 7685 ft 126 kts 349°
2026-04-25 20:10 34.13086 -117.00561 7682 ft 128 kts 353°
2026-04-25 20:10 34.13979 -117.00491 7683 ft 131 kts
2026-04-25 20:10 34.14838 -117.00061 7698 ft 135 kts 26°
2026-04-25 20:10 34.15629 -116.99417 7685 ft 137 kts 32°
2026-04-25 20:11 34.16317 -116.98603 7682 ft 138 kts 48°
2026-04-25 20:11 34.16798 -116.97607 7686 ft 138 kts 64°
2026-04-25 20:11 34.17138 -116.96521 7691 ft 138 kts 70°
2026-04-25 20:11 34.17448 -116.95411 7688 ft 138 kts 71°
2026-04-25 20:12 34.17746 -116.94327 7694 ft 138 kts 71°
2026-04-25 20:12 34.18048 -116.93227 7713 ft 136 kts 71°
2026-04-25 20:12 34.18339 -116.92149 7774 ft 133 kts 71°
2026-04-25 20:12 34.18436 -116.91785 7797 ft 132 kts 72°
2026-04-25 20:13 34.18654 -116.89990 7904 ft 130 kts 88°
2026-04-25 20:13 34.18712 -116.88889 7974 ft 129 kts 87°
2026-04-25 20:13 34.18652 -116.87810 8040 ft 130 kts 98°
2026-04-25 20:13 34.18562 -116.86739 8171 ft 125 kts 98°
2026-04-25 20:14 34.18484 -116.85741 8370 ft 117 kts 97°
2026-04-25 20:14 34.18406 -116.84776 8552 ft 114 kts 98°
2026-04-25 20:14 34.18338 -116.83838 8756 ft 113 kts 98°
2026-04-25 20:14 34.18266 -116.82890 8944 ft 113 kts 99°
2026-04-25 20:15 34.18190 -116.81887 8993 ft 125 kts 98°
2026-04-25 20:15 34.18114 -116.80810 9000 ft 134 kts 97°
2026-04-25 20:15 34.18029 -116.79668 9004 ft 138 kts 98°
2026-04-25 20:15 34.17941 -116.78519 9086 ft 137 kts 98°
2026-04-25 20:16 34.17844 -116.77362 9114 ft 138 kts 97°
2026-04-25 20:16 34.17849 -116.76241 9336 ft 124 kts 92°
2026-04-25 20:16 34.18045 -116.75281 9545 ft 115 kts 60°
2026-04-25 20:16 34.18549 -116.74564 9735 ft 110 kts 35°
2026-04-25 20:17 34.19172 -116.74086 9925 ft 105 kts 16°
2026-04-25 20:17 34.19817 -116.73689 10079 ft 104 kts 17°
2026-04-25 20:17 34.20476 -116.73322 10172 ft 103 kts 11°
2026-04-25 20:17 34.21152 -116.73096 10326 ft 101 kts
2026-04-25 20:18 34.21833 -116.72879 10483 ft 101 kts
2026-04-25 20:18 34.22525 -116.72652 10622 ft 102 kts
2026-04-25 20:18 34.23205 -116.72422 10759 ft 103 kts
2026-04-25 20:18 34.23899 -116.72186 10903 ft 102 kts
2026-04-25 20:19 34.24587 -116.71950 11040 ft 103 kts
2026-04-25 20:19 34.25281 -116.71608 11128 ft 117 kts 28°
2026-04-25 20:19 34.25936 -116.70949 11153 ft 127 kts 33°
2026-04-25 20:19 34.26629 -116.70239 11150 ft 136 kts 38°
2026-04-25 20:20 34.27300 -116.69395 11155 ft 140 kts 39°
2026-04-25 20:20 34.27978 -116.68521 11153 ft 143 kts 42°
2026-04-25 20:20 34.28537 -116.67517 11151 ft 145 kts 57°
2026-04-25 20:20 34.29053 -116.66473 11145 ft 146 kts 57°
2026-04-25 20:21 34.29576 -116.65414 11150 ft 145 kts 57°
2026-04-25 20:21 34.29900 -116.64266 11102 ft 143 kts 92°
2026-04-25 20:21 34.29597 -116.63136 10762 ft 143 kts 134°
2026-04-25 20:21 34.28879 -116.62327 10451 ft 142 kts 147°
2026-04-25 20:22 34.28128 -116.61558 10141 ft 142 kts 148°
2026-04-25 20:22 34.27872 -116.61304 10041 ft 141 kts 148°
2026-04-25 20:22 34.26535 -116.60712 9500 ft 117 kts 203°
2026-04-25 20:22 34.25982 -116.61326 9183 ft 109 kts 247°
2026-04-25 20:23 34.25936 -116.62235 8875 ft 109 kts 270°
2026-04-25 20:23 34.25982 -116.63155 8593 ft 108 kts 270°
2026-04-25 20:23 34.26026 -116.63960 8647 ft 90 kts 271°
2026-04-25 20:23 34.26071 -116.64674 8663 ft 83 kts 270°
2026-04-25 20:24 34.26120 -116.65354 8661 ft 78 kts 271°
2026-04-25 20:24 34.26168 -116.65990 8668 ft 75 kts 270°
2026-04-25 20:24 34.26221 -116.66616 8673 ft 74 kts 271°
2026-04-25 20:24 34.26270 -116.67236 8672 ft 73 kts 270°
2026-04-25 20:25 34.26321 -116.67853 8681 ft 75 kts 271°
2026-04-25 20:25 34.26374 -116.68505 8680 ft 81 kts 271°
2026-04-25 20:25 34.26426 -116.69196 8677 ft 83 kts 271°
2026-04-25 20:25 34.26473 -116.69900 8670 ft 84 kts 270°
2026-04-25 20:26 34.26527 -116.70599 8664 ft 84 kts 271°
2026-04-25 20:26 34.26586 -116.71305 8654 ft 84 kts 271°
2026-04-25 20:26 34.26644 -116.72011 8702 ft 86 kts 270°
2026-04-25 20:26 34.26700 -116.72703 8668 ft 77 kts 270°
2026-04-25 20:27 34.26751 -116.73313 8645 ft 69 kts 270°
2026-04-25 20:27 34.26801 -116.73892 8559 ft 71 kts 270°
2026-04-25 20:27 34.26841 -116.74525 8421 ft 78 kts 263°
2026-04-25 20:27 34.26732 -116.75175 8279 ft 80 kts 254°
2026-04-25 20:28 34.26586 -116.75835 8163 ft 82 kts 254°
2026-04-25 20:28 34.26437 -116.76510 8044 ft 83 kts 255°
2026-04-25 20:28 34.26315 -116.77178 7970 ft 79 kts 262°
2026-04-25 20:28 34.26304 -116.77855 7925 ft 80 kts 267°
2026-04-25 20:29 34.26332 -116.78552 7875 ft 86 kts 269°
2026-04-25 20:29 34.26373 -116.79294 7830 ft 89 kts 269°
2026-04-25 20:29 34.26382 -116.80004 7815 ft 79 kts 266°
2026-04-25 20:29 34.26410 -116.80665 7709 ft 80 kts 270°
2026-04-25 20:30 34.26420 -116.81348 7602 ft 80 kts 266°
2026-04-25 20:30 34.26416 -116.82027 7503 ft 77 kts 268°
2026-04-25 20:30 34.26379 -116.82668 7360 ft 77 kts 265°
2026-04-25 20:30 34.26395 -116.83288 7216 ft 65 kts 267°
2026-04-25 20:31 34.26390 -116.83804 7072 ft 60 kts 268°
2026-04-25 20:31 34.26385 -116.84272 6953 ft 51 kts 266°
2026-04-25 20:31 34.26384 -116.84684 6836 ft 46 kts 270°
2026-04-25 20:31 34.26380 -116.85037 6759 ft 39 kts 265°
2026-04-25 20:32 34.26377 -116.85297 6753 ft 16 kts 272°
2026-04-25 20:32 34.26413 -116.85362 6753 ft 8 kts 344°
2026-04-25 20:32 34.26445 -116.85368 6753 ft 4 kts 115°
2026-04-25 20:32 34.26442 -116.85366 6753 ft 0 kts 200°